Time,TemperatureF,DewpointF,PressureIn,WindDirection,WindDirectionDegrees,WindSpeedMPH,WindSpeedGustMPH,Humidity,HourlyPrecipIn,Conditions,Clouds,dailyrainin,SoftwareType,DateUTC
2013-10-11 01:15:00,61.4,60.0,29.64,NW,315,2.0,4.0,95,0.00,,,0.00,Weather View 32 v70,2013-10-11 05:15:00,
2013-10-11 03:00:00,61.6,60.7,29.63,NW,315,2.0,6.0,97,0.00,,,0.00,Weather View 32 v70,2013-10-11 07:00:00,
2013-10-11 03:45:00,61.6,60.7,29.62,NW,315,2.0,6.0,97,0.00,,,0.00,Weather View 32 v70,2013-10-11 07:45:00,
2013-10-11 04:00:00,61.3,60.4,29.62,NNW,337,4.0,6.0,97,0.00,,,0.00,Weather View 32 v70,2013-10-11 08:00:00,
2013-10-11 04:45:00,61.4,60.8,29.62,NW,315,2.0,5.0,98,0.00,,,0.00,Weather View 32 v70,2013-10-11 08:45:00,
2013-10-11 05:00:00,61.5,60.9,29.63,NW,315,1.0,4.0,98,0.00,,,0.00,Weather View 32 v70,2013-10-11 09:00:00,
2013-10-11 05:15:00,61.5,60.9,29.63,NW,315,1.0,4.0,98,0.00,,,0.00,Weather View 32 v70,2013-10-11 09:15:00,
2013-10-11 05:45:00,61.8,61.2,29.64,NNW,337,2.0,3.0,98,0.00,,,0.00,Weather View 32 v70,2013-10-11 09:45:00,
2013-10-11 06:00:00,61.7,61.1,29.64,NW,315,1.0,3.0,98,0.00,,,0.00,Weather View 32 v70,2013-10-11 10:00:00,
2013-10-11 06:15:00,61.8,61.2,29.65,NW,315,2.0,6.0,98,0.00,,,0.00,Weather View 32 v70,2013-10-11 10:15:00,
2013-10-11 06:30:00,61.9,61.3,29.65,NW,315,4.0,6.0,98,0.00,,,0.00,Weather View 32 v70,2013-10-11 10:30:00,
2013-10-11 06:45:00,62.1,61.5,29.66,NNW,337,4.0,7.0,98,0.00,,,0.00,Weather View 32 v70,2013-10-11 10:45:00,
2013-10-11 07:30:00,62.1,61.5,29.66,NW,315,6.0,7.0,98,0.00,,,0.00,Weather View 32 v70,2013-10-11 11:30:00,
2013-10-11 08:15:00,63.0,61.8,29.67,NNW,337,5.0,6.0,96,0.00,,,0.00,Weather View 32 v70,2013-10-11 12:15:00,
2013-10-11 08:45:00,63.8,61.7,29.68,NW,315,4.0,6.0,93,0.00,,,0.00,Weather View 32 v70,2013-10-11 12:45:00,
2013-10-11 09:15:00,64.6,61.6,29.68,NW,315,4.0,8.0,90,0.00,,,0.00,Weather View 32 v70,2013-10-11 13:15:00,
2013-10-11 09:30:00,65.6,61.6,29.69,North,360,5.0,8.0,87,0.00,,,0.00,Weather View 32 v70,2013-10-11 13:30:00,
2013-10-11 09:45:00,65.7,61.4,29.69,NNW,337,3.0,9.0,86,0.00,,,0.00,Weather View 32 v70,2013-10-11 13:45:00,
2013-10-11 10:00:00,66.0,61.3,29.69,NW,315,4.0,9.0,85,0.00,,,0.00,Weather View 32 v70,2013-10-11 14:00:00,
2013-10-11 10:15:00,66.5,61.5,29.69,NW,315,7.0,9.0,84,0.00,,,0.00,Weather View 32 v70,2013-10-11 14:15:00,
2013-10-11 10:30:00,66.4,61.1,29.69,NNW,337,4.0,9.0,83,0.00,,,0.00,Weather View 32 v70,2013-10-11 14:30:00,
2013-10-11 10:45:00,66.7,61.4,29.69,NW,315,7.0,9.0,83,0.00,,,0.00,Weather View 32 v70,2013-10-11 14:45:00,
2013-10-11 11:00:00,66.6,61.6,29.69,NW,315,2.0,9.0,84,0.00,,,0.00,Weather View 32 v70,2013-10-11 15:00:00,
2013-10-11 11:15:00,67.5,62.1,29.69,NW,315,4.0,9.0,83,0.00,,,0.00,Weather View 32 v70,2013-10-11 15:15:00,
2013-10-11 11:30:00,70.1,62.5,29.69,NW,315,3.0,9.0,77,0.00,,,0.00,Weather View 32 v70,2013-10-11 15:30:00,
2013-10-11 11:45:00,72.3,62.7,29.69,NW,315,2.0,7.0,72,0.00,,,0.00,Weather View 32 v70,2013-10-11 15:45:00,
2013-10-11 12:00:00,74.9,62.7,29.69,NW,315,5.0,10.0,66,0.00,,,0.00,Weather View 32 v70,2013-10-11 16:00:00,
2013-10-11 12:15:00,75.2,61.2,29.69,NNW,337,7.0,10.0,62,0.00,,,0.00,Weather View 32 v70,2013-10-11 16:15:00,
2013-10-11 12:30:00,76.3,60.4,29.69,NW,315,6.0,10.0,58,0.00,,,0.00,Weather View 32 v70,2013-10-11 16:30:00,
2013-10-11 13:45:00,76.0,62.0,29.67,NW,315,7.0,9.0,62,0.00,,,0.00,Weather View 32 v70,2013-10-11 17:45:00,
2013-10-11 14:00:00,75.8,61.8,29.66,North,360,5.0,9.0,62,0.00,,,0.00,Weather View 32 v70,2013-10-11 18:00:00,
2013-10-11 14:15:00,76.3,61.8,29.66,North,360,4.0,12.0,61,0.00,,,0.00,Weather View 32 v70,2013-10-11 18:15:00,
2013-10-11 14:20:00,76.3,61.8,29.66,North,360,4.0,12.0,61,0.00,,,0.00,Weather View 32 v70,2013-10-11 18:20:00,
2013-10-11 14:45:00,75.6,62.1,29.65,NW,315,6.0,12.0,63,0.00,,,0.00,Weather View 32 v70,2013-10-11 18:45:00,
2013-10-11 15:00:00,75.1,62.0,29.66,NW,315,7.0,12.0,64,0.00,,,0.00,Weather View 32 v70,2013-10-11 19:00:00,
2013-10-11 15:15:00,75.9,61.9,29.65,NNW,337,7.0,10.0,62,0.00,,,0.00,Weather View 32 v70,2013-10-11 19:15:00,
2013-10-11 15:21:00,75.9,61.9,29.65,NNW,337,7.0,10.0,62,0.00,,,0.00,Weather View 32 v70,2013-10-11 19:21:00,
2013-10-11 15:30:00,76.7,63.1,29.65,NW,315,2.0,9.0,63,0.00,,,0.00,Weather View 32 v70,2013-10-11 19:30:00,
2013-10-11 15:45:00,75.6,61.6,29.65,North,360,7.0,11.0,62,0.00,,,0.00,Weather View 32 v70,2013-10-11 19:45:00,
2013-10-11 16:00:00,73.9,61.8,29.66,NW,315,3.0,11.0,66,0.00,,,0.00,Weather View 32 v70,2013-10-11 20:00:00,
2013-10-11 16:15:00,73.7,62.4,29.66,NW,315,3.0,11.0,68,0.00,,,0.00,Weather View 32 v70,2013-10-11 20:15:00,
2013-10-11 16:21:00,73.7,62.4,29.66,NW,315,3.0,11.0,68,0.00,,,0.00,Weather View 32 v70,2013-10-11 20:21:00,
2013-10-11 16:30:00,73.6,62.3,29.65,NNW,337,2.0,11.0,68,0.00,,,0.00,Weather View 32 v70,2013-10-11 20:30:00,
2013-10-11 16:45:00,73.9,63.1,29.65,NW,315,2.0,11.0,69,0.00,,,0.00,Weather View 32 v70,2013-10-11 20:45:00,
2013-10-11 17:00:00,74.3,62.6,29.65,North,360,1.0,9.0,67,0.00,,,0.00,Weather View 32 v70,2013-10-11 21:00:00,
2013-10-11 17:15:00,73.9,62.6,29.65,NNW,337,3.0,9.0,68,0.00,,,0.00,Weather View 32 v70,2013-10-11 21:15:00,
2013-10-11 17:22:00,73.9,62.6,29.65,NNW,337,3.0,9.0,68,0.00,,,0.00,Weather View 32 v70,2013-10-11 21:22:00,
2013-10-11 17:30:00,73.5,62.7,29.65,NNW,337,4.0,7.0,69,0.00,,,0.00,Weather View 32 v70,2013-10-11 21:30:00,
2013-10-11 17:45:00,73.5,62.7,29.65,NNW,337,4.0,7.0,69,0.00,,,0.00,Weather View 32 v70,2013-10-11 21:45:00,
2013-10-11 18:00:00,71.9,62.4,29.65,NNE,22,2.0,7.0,72,0.00,,,0.00,Weather View 32 v70,2013-10-11 22:00:00,
2013-10-11 18:15:00,72.0,62.8,29.66,NNW,337,1.0,7.0,73,0.00,,,0.00,Weather View 32 v70,2013-10-11 22:15:00,
2013-10-11 18:22:00,72.0,62.8,29.66,NNW,337,1.0,7.0,73,0.00,,,0.00,Weather View 32 v70,2013-10-11 22:22:00,
2013-10-11 18:30:00,70.7,62.7,29.66,North,360,1.0,6.0,76,0.00,,,0.00,Weather View 32 v70,2013-10-11 22:30:00,
2013-10-11 18:45:00,69.3,62.5,29.66,North,360,2.0,4.0,79,0.00,,,0.00,Weather View 32 v70,2013-10-11 22:45:00,
2013-10-11 19:00:00,68.5,62.4,29.66,North,360,2.0,2.0,81,0.00,,,0.00,Weather View 32 v70,2013-10-11 23:00:00,
2013-10-11 19:15:00,67.9,62.5,29.66,North,360,2.0,2.0,83,0.00,,,0.00,Weather View 32 v70,2013-10-11 23:15:00,
2013-10-11 19:23:00,67.9,62.5,29.66,North,360,2.0,2.0,83,0.00,,,0.00,Weather View 32 v70,2013-10-11 23:23:00,
2013-10-11 19:30:00,67.2,62.2,29.67,North,360,0.0,2.0,84,0.00,,,0.00,Weather View 32 v70,2013-10-11 23:30:00,
2013-10-11 19:45:00,66.9,61.9,29.67,North,360,0.0,2.0,84,0.00,,,0.00,Weather View 32 v70,2013-10-11 23:45:00,
2013-10-11 20:00:00,66.8,62.1,29.67,North,360,0.0,2.0,85,0.00,,,0.00,Weather View 32 v70,2013-10-12 00:00:00,
2013-10-11 20:15:00,66.5,61.8,29.67,North,360,0.0,2.0,85,0.00,,,0.00,Weather View 32 v70,2013-10-12 00:15:00,
2013-10-11 20:24:00,66.5,61.8,29.67,North,360,0.0,2.0,85,0.00,,,0.00,Weather View 32 v70,2013-10-12 00:24:00,
2013-10-11 21:00:00,65.9,61.6,29.68,North,360,0.0,0.0,86,0.00,,,0.00,Weather View 32 v70,2013-10-12 01:00:00,
2013-10-11 21:15:00,65.6,61.6,29.69,North,360,0.0,0.0,87,0.00,,,0.00,Weather View 32 v70,2013-10-12 01:15:00,
2013-10-11 21:24:00,65.6,61.6,29.69,North,360,0.0,0.0,87,0.00,,,0.00,Weather View 32 v70,2013-10-12 01:24:00,
2013-10-11 21:30:00,65.5,61.8,29.69,North,360,2.0,2.0,88,0.00,,,0.00,Weather View 32 v70,2013-10-12 01:30:00,
2013-10-11 22:45:00,64.1,61.4,29.70,NNE,22,1.0,2.0,91,0.00,,,0.00,Weather View 32 v70,2013-10-12 02:45:00,